GW1213 Weather Reports


Display with metric or nautical units.
time (UTC)temp
F
wind
direction
speed
MPH
gust
MPH
rain 1hr
in
rain 24hr
in
rain mn
in
humidity
%
barometer
mb
20260906143058 76 0 0.0 4.0 0.00 0.19 0.01 73 1014.5
20260906142535 76 0 0.0 4.0 0.00 0.19 0.01 73 1014.6
20260906142039 75 34 0.0 2.0 0.00 0.19 0.01 73 1014.6
20260906141600 75 0 0.0 0.0 0.00 0.19 0.01 72 1014.6
20260906141035 75 0 0.0 0.0 0.00 0.19 0.01 73 1014.6
20260906140537 75 0 0.0 0.0 0.00 0.19 0.01 75 1014.6
20260906140108 75 0 0.0 0.0 0.00 0.19 0.01 75 1014.6
20260906135535 74 0 0.0 1.0 0.00 0.19 0.01 75 1014.5
20260906135035 74 0 0.0 1.0 0.00 0.19 0.01 75 1014.5
20260906134615 74 0 0.0 2.0 0.00 0.19 0.01 75 1014.5
20260906134035 74 9 0.0 4.0 0.00 0.19 0.01 76 1014.6
20260906133537 74 0 1.0 4.0 0.00 0.19 0.01 77 1014.5
20260906133113 73 0 0.0 2.0 0.00 0.19 0.01 77 1014.6
20260906132542 73 0 0.0 2.0 0.00 0.19 0.01 78 1014.6
20260906132037 73 0 0.0 2.0 0.00 0.19 0.01 79 1014.4
20260906131558 73 48 0.0 2.0 0.00 0.19 0.01 80 1014.4
20260906131036 73 0 0.0 2.0 0.00 0.19 0.01 79 1014.5
20260906130538 72 0 0.0 3.0 0.00 0.19 0.01 79 1014.4
20260906130112 72 0 0.0 3.0 0.00 0.19 0.01 80 1014.4
20260906125539 72 349 0.0 2.0 0.00 0.19 0.01 80 1014.4
20260906125037 71 0 0.0 2.0 0.00 0.19 0.01 81 1014.3
20260906124608 71 88 0.0 3.0 0.00 0.19 0.01 82 1014.3
20260906124038 71 0 0.0 3.0 0.00 0.19 0.01 80 1014.4
20260906123537 71 0 0.0 2.0 0.00 0.19 0.01 81 1014.4
20260906123103 71 0 0.0 2.0 0.00 0.19 0.01 82 1014.3
20260906122538 70 0 0.0 0.0 0.00 0.19 0.01 83 1014.2
20260906122038 70 0 0.0 0.0 0.00 0.19 0.01 84 1014.2
20260906121620 70 0 0.0 0.0 0.00 0.19 0.01 85 1014.1
20260906121037 69 0 0.0 0.0 0.00 0.19 0.01 86 1014.1
20260906120537 68 0 0.0 0.0 0.00 0.19 0.01 87 1014.0
20260906115535 67 0 0.0 0.0 0.00 0.19 0.01 90 1014.0
20260906115035 67 0 0.0 0.0 0.00 0.19 0.01 91 1014.0
20260906114622 66 0 0.0 0.0 0.00 0.19 0.01 92 1013.9
20260906114039 66 0 0.0 0.0 0.00 0.19 0.01 93 1013.8
20260906113536 66 0 0.0 0.0 0.00 0.19 0.01 93 1013.7
20260906113104 65 0 0.0 0.0 0.00 0.19 0.01 93 1013.7
20260906112535 65 0 0.0 0.0 0.00 0.19 0.01 93 1013.6
20260906112038 65 0 0.0 0.0 0.00 0.19 0.01 93 1013.5
20260906111603 65 0 0.0 0.0 0.00 0.19 0.01 93 1013.5
20260906111035 65 0 0.0 0.0 0.00 0.19 0.01 93 1013.4
20260906110536 65 0 0.0 0.0 0.00 0.19 0.01 94 1013.3
20260906110058 65 0 0.0 0.0 0.00 0.19 0.01 94 1013.3
20260906105541 65 0 0.0 0.0 0.00 0.19 0.01 94 1013.2
20260906105039 65 0 0.0 0.0 0.00 0.19 0.01 94 1013.1
20260906104556 65 0 0.0 0.0 0.00 0.19 0.01 95 1013.1
20260906104038 65 0 0.0 0.0 0.00 0.19 0.01 95 1013.0
20260906103537 65 0 0.0 0.0 0.00 0.19 0.01 95 1013.0
20260906103102 65 0 0.0 1.0 0.00 0.19 0.01 95 1013.0
20260906102538 65 0 0.0 2.0 0.00 0.19 0.01 95 1012.9
20260906102041 65 0 0.0 2.0 0.00 0.19 0.01 95 1012.7
20260906101603 65 0 0.0 2.0 0.00 0.19 0.01 95 1012.5
20260906101039 66 0 0.0 2.0 0.00 0.19 0.01 96 1012.4
20260906100537 66 0 0.0 0.0 0.00 0.19 0.01 96 1012.5
20260906100058 66 0 0.0 0.0 0.00 0.19 0.01 96 1012.4
20260906095535 66 0 0.0 0.0 0.01 0.19 0.01 96 1012.5
20260906095038 66 0 0.0 0.0 0.01 0.19 0.01 96 1012.5
20260906094601 66 0 0.0 0.0 0.01 0.19 0.01 96 1012.5
20260906094038 66 0 0.0 0.0 0.01 0.19 0.01 96 1012.6
20260906093538 66 0 0.0 0.0 0.01 0.19 0.01 96 1012.7
20260906093108 67 0 0.0 0.0 0.01 0.19 0.01 96 1012.5
20260906092538 67 0 0.0 0.0 0.01 0.19 0.01 96 1012.4
20260906092036 67 0 0.0 0.0 0.01 0.19 0.01 96 1012.4
20260906091604 67 0 0.0 0.0 0.01 0.19 0.01 96 1012.2
20260906091038 67 0 0.0 0.0 0.01 0.19 0.01 96 1012.1
20260906090538 67 0 0.0 0.0 0.01 0.19 0.01 96 1012.0
20260906090112 67 0 0.0 0.0 0.01 0.19 0.01 96 1012.0
20260906085538 67 0 0.0 0.0 0.00 0.18 0.00 96 1012.0
20260906085037 67 0 0.0 0.0 0.00 0.18 0.00 96 1011.9
20260906084601 68 0 0.0 0.0 0.00 0.18 0.00 96 1011.9
20260906084035 68 0 0.0 0.0 0.00 0.18 0.00 96 1011.9
20260906083538 68 0 0.0 0.0 0.00 0.18 0.00 96 1011.8
20260906083102 68 0 0.0 0.0 0.00 0.18 0.00 96 1011.9
20260906082538 68 0 0.0 0.0 0.00 0.18 0.00 96 1011.8
20260906082038 68 0 0.0 0.0 0.00 0.18 0.00 96 1011.7
20260906081601 68 0 0.0 0.0 0.00 0.18 0.00 96 1011.7
20260906081035 68 0 0.0 0.0 0.00 0.18 0.00 96 1011.6
20260906080536 69 0 0.0 0.0 0.00 0.18 0.00 96 1011.5
20260906080106 69 0 0.0 0.0 0.00 0.18 0.00 97 1011.5
20260906075535 69 0 0.0 0.0 0.00 0.18 0.00 97 1011.4
20260906075036 69 0 0.0 0.0 0.00 0.18 0.00 96 1011.4
20260906074601 69 0 0.0 0.0 0.00 0.18 0.00 96 1011.4
20260906074038 69 0 0.0 0.0 0.00 0.18 0.00 96 1011.5
20260906073537 69 0 0.0 0.0 0.00 0.18 0.00 96 1011.5
20260906073101 69 0 0.0 0.0 0.00 0.18 0.00 96 1011.5
20260906072536 69 0 0.0 0.0 0.00 0.18 0.00 96 1011.4
20260906072035 69 0 0.0 0.0 0.00 0.18 0.00 97 1011.4
20260906071611 69 0 0.0 0.0 0.00 0.18 0.00 97 1011.4
20260906071035 69 0 0.0 0.0 0.00 0.18 0.00 97 1011.4
20260906070534 69 0 0.0 0.0 0.00 0.18 0.00 97 1011.5
20260906070109 69 0 0.0 0.0 0.00 0.18 0.00 97 1011.4
20260906065541 69 0 0.0 0.0 0.00 0.18 0.00 96 1011.5
20260906065037 70 0 0.0 0.0 0.00 0.18 0.00 96 1011.6
20260906064603 70 0 0.0 0.0 0.00 0.18 0.00 96 1011.5
20260906064038 70 0 0.0 0.0 0.00 0.18 0.00 97 1011.5
20260906063540 70 0 0.0 0.0 0.00 0.18 0.00 96 1011.6
20260906063102 70 0 0.0 0.0 0.00 0.18 0.00 96 1011.5
20260906062538 70 0 0.0 0.0 0.00 0.18 0.00 96 1011.6
20260906062041 70 0 0.0 0.0 0.00 0.18 0.00 96 1011.6
20260906061605 70 0 0.0 0.0 0.00 0.18 0.00 96 1011.5
20260906061035 70 0 0.0 0.0 0.00 0.18 0.00 96 1011.5
20260906060535 70 0 0.0 0.0 0.00 0.18 0.00 96 1011.4
20260906060149 70 0 0.0 0.0 0.00 0.18 0.00 97 1011.4
20260906055538 70 0 0.0 0.0 0.00 0.18 0.00 97 1011.4
20260906055038 70 0 0.0 0.0 0.00 0.18 0.00 97 1011.4
20260906054616 70 0 0.0 0.0 0.00 0.18 0.00 97 1011.5
20260906054037 70 0 0.0 0.0 0.00 0.18 0.00 96 1011.5
20260906053540 70 0 0.0 0.0 0.00 0.18 0.00 96 1011.6
20260906053102 70 0 0.0 0.0 0.00 0.18 0.00 96 1011.7
20260906052536 70 0 0.0 0.0 0.00 0.18 0.00 96 1011.8
20260906052037 70 0 0.0 0.0 0.00 0.18 0.00 96 1011.9
20260906051559 70 0 0.0 0.0 0.00 0.18 0.00 96 1011.8
20260906051036 70 0 0.0 0.0 0.00 0.18 0.00 96 1011.9
20260906050535 71 0 0.0 0.0 0.00 0.18 0.00 96 1011.8
20260906050113 71 0 0.0 0.0 0.00 0.18 0.00 96 1011.7
20260906045535 71 0 0.0 0.0 0.00 0.18 0.00 96 1011.7
20260906045038 71 0 0.0 0.0 0.00 0.18 0.00 96 1011.7
20260906044602 71 0 0.0 0.0 0.00 0.18 0.00 96 1011.8
20260906044040 71 0 0.0 0.0 0.00 0.18 0.00 96 1011.9
20260906043539 71 0 0.0 0.0 0.00 0.18 0.00 96 1011.9
20260906043109 71 0 0.0 0.0 0.00 0.18 0.00 96 1011.9
20260906042536 71 0 0.0 0.0 0.00 0.18 0.00 96 1012.0
20260906042035 71 0 0.0 0.0 0.00 0.18 0.00 96 1012.0
20260906041559 71 0 0.0 0.0 0.00 0.18 0.00 96 1011.9
20260906041036 71 0 0.0 0.0 0.00 0.18 0.00 96 1012.0
20260906040538 71 0 0.0 0.0 0.00 0.18 0.00 96 1011.9
20260906040111 71 0 0.0 0.0 0.00 0.18 0.00 96 1011.9
20260906035616 72 0 0.0 0.0 0.00 0.18 0.18 96 1012.0
20260906035038 72 0 0.0 0.0 0.00 0.18 0.18 96 1012.0
20260906034607 72 0 0.0 0.0 0.00 0.18 0.18 96 1012.1
20260906034035 72 0 0.0 0.0 0.00 0.18 0.18 96 1012.1
20260906033535 72 0 0.0 0.0 0.00 0.18 0.18 96 1012.0
20260906033059 72 0 0.0 0.0 0.00 0.18 0.18 96 1012.0
20260906032535 72 0 0.0 0.0 0.00 0.18 0.18 96 1012.0
20260906032035 72 0 0.0 0.0 0.00 0.18 0.18 96 1012.0
20260906031620 72 0 0.0 0.0 0.00 0.18 0.18 96 1011.9
20260906031035 72 0 0.0 0.0 0.00 0.18 0.18 96 1011.9
20260906030537 72 0 0.0 2.0 0.00 0.18 0.18 96 1012.0
20260906030109 72 0 0.0 3.0 0.00 0.18 0.18 96 1012.1
20260906025538 72 0 1.0 3.0 0.00 0.18 0.18 96 1012.0
20260906025036 72 57 0.0 0.0 0.00 0.18 0.18 96 1011.8
20260906024605 72 0 0.0 0.0 0.00 0.18 0.18 96 1011.6
20260906024036 72 0 0.0 0.0 0.00 0.18 0.18 96 1011.8
20260906023538 72 0 0.0 0.0 0.00 0.18 0.18 95 1011.8
20260906023110 72 0 0.0 0.0 0.00 0.18 0.18 96 1011.8
20260906022539 72 0 0.0 0.0 0.00 0.18 0.18 95 1011.9
20260906022035 72 0 0.0 0.0 0.00 0.18 0.18 95 1011.7
20260906021557 72 0 0.0 0.0 0.00 0.18 0.18 95 1011.8
20260906021040 72 0 0.0 0.0 0.00 0.18 0.18 95 1011.7
20260906020538 73 0 0.0 0.0 0.00 0.18 0.18 95 1011.6
20260906020109 73 0 0.0 0.0 0.00 0.18 0.18 95 1011.6
20260906015539 73 0 0.0 0.0 0.00 0.18 0.18 95 1011.5
20260906015035 73 0 0.0 0.0 0.00 0.18 0.18 95 1011.5
20260906014600 73 0 0.0 0.0 0.00 0.18 0.18 95 1011.5
20260906014036 73 0 0.0 0.0 0.00 0.18 0.18 95 1011.5
20260906013537 73 0 0.0 0.0 0.00 0.18 0.18 95 1011.4
20260906013059 73 0 0.0 0.0 0.00 0.18 0.18 95 1011.4
20260906012537 73 0 0.0 0.0 0.00 0.18 0.18 95 1011.3
20260906012039 73 0 0.0 0.0 0.00 0.18 0.18 95 1011.1
20260906011607 73 0 0.0 0.0 0.00 0.18 0.18 95 1011.0
20260906011038 73 0 0.0 0.0 0.00 0.18 0.18 95 1010.9
20260906010537 73 0 0.0 0.0 0.00 0.18 0.18 94 1010.9
20260906010104 74 0 0.0 0.0 0.00 0.18 0.18 94 1010.8
20260906005537 74 0 0.0 0.0 0.00 0.18 0.18 94 1010.8
20260906005038 74 0 0.0 0.0 0.00 0.18 0.18 94 1010.8
20260906004608 74 0 0.0 0.0 0.00 0.18 0.18 94 1010.8
20260906004038 74 0 0.0 0.0 0.00 0.18 0.18 94 1010.8
20260906003538 74 0 0.0 0.0 0.00 0.18 0.18 94 1010.7
20260906003101 74 0 0.0 0.0 0.00 0.18 0.18 94 1010.6
20260906002538 74 0 0.0 0.0 0.00 0.18 0.18 94 1010.6
20260906002038 74 0 0.0 0.0 0.00 0.18 0.18 94 1010.5
20260906001559 74 0 0.0 0.0 0.00 0.18 0.18 94 1010.4
20260906001034 74 0 0.0 0.0 0.00 0.18 0.18 94 1010.4
20260906000537 75 0 0.0 0.0 0.00 0.18 0.18 93 1010.4
20260906000110 75 0 0.0 0.0 0.00 0.18 0.18 93 1010.3
20260905235541 75 0 0.0 0.0 0.00 0.18 0.18 92 1010.4
20260905235034 75 0 0.0 0.0 0.00 0.18 0.18 92 1010.4
20260905234601 75 0 0.0 0.0 0.00 0.18 0.18 92 1010.4
20260905234039 75 0 0.0 0.0 0.00 0.18 0.18 92 1010.4
20260905233538 75 0 0.0 0.0 0.00 0.18 0.18 92 1010.5
20260905233103 76 0 0.0 0.0 0.00 0.18 0.18 91 1010.5
20260905232537 76 0 0.0 0.0 0.00 0.18 0.18 91 1010.6
20260905232037 76 0 0.0 0.0 0.00 0.18 0.18 91 1010.4
20260905231618 76 0 0.0 0.0 0.00 0.18 0.18 90 1010.4
20260905231040 77 0 0.0 0.0 0.00 0.18 0.18 89 1010.4
20260905230538 77 0 0.0 0.0 0.00 0.18 0.18 88 1010.4
20260905230107 77 0 0.0 0.0 0.00 0.18 0.18 87 1010.2
20260905225536 78 0 0.0 0.0 0.00 0.18 0.18 87 1010.2
20260905225037 78 0 0.0 0.0 0.00 0.18 0.18 86 1010.2
20260905224602 78 0 0.0 0.0 0.00 0.18 0.18 86 1010.4
20260905224041 79 0 0.0 0.0 0.00 0.18 0.18 84 1010.3
20260905223536 79 0 0.0 0.0 0.00 0.18 0.18 82 1010.3
20260905223102 79 0 0.0 0.0 0.00 0.18 0.18 82 1010.3
20260905222536 79 0 0.0 0.0 0.00 0.18 0.18 82 1010.3
20260905222036 79 0 0.0 3.0 0.00 0.18 0.18 82 1010.1
20260905221619 79 0 0.0 4.0 0.00 0.18 0.18 82 1010.2
20260905221039 79 0 1.0 4.0 0.00 0.18 0.18 81 1010.2
20260905220537 79 0 0.0 0.0 0.00 0.18 0.18 83 1010.1
20260905220058 78 0 0.0 1.0 0.00 0.18 0.18 82 1010.1
20260905215537 78 0 0.0 3.0 0.00 0.18 0.18 83 1010.0
20260905215037 78 0 1.0 3.0 0.00 0.18 0.18 82 1009.8
20260905214609 78 0 0.0 1.0 0.00 0.18 0.18 84 1009.8
20260905214038 78 0 0.0 1.0 0.00 0.18 0.18 82 1010.1
20260905213538 78 0 0.0 3.0 0.00 0.18 0.18 83 1010.0
20260905213106 78 0 0.0 3.0 0.00 0.18 0.18 84 1010.0
20260905212537 78 0 0.0 4.0 0.00 0.18 0.18 84 1010.1
20260905212037 78 0 0.0 4.0 0.00 0.18 0.18 82 1010.0
20260905211558 78 209 0.0 2.0 0.00 0.18 0.18 84 1009.9
20260905211037 78 0 0.0 2.0 0.00 0.18 0.18 84 1009.9
20260905210540 78 0 0.0 2.0 0.00 0.18 0.18 84 1009.9
20260905210111 78 0 0.0 1.0 0.00 0.18 0.18 86 1009.8
20260905205537 77 0 0.0 2.0 0.00 0.18 0.18 86 1009.8
20260905205037 77 0 0.0 2.0 0.00 0.18 0.18 85 1009.8
20260905204559 77 232 0.0 2.0 0.00 0.18 0.18 86 1009.9
20260905204037 76 0 0.0 2.0 0.00 0.18 0.18 86 1009.8
20260905203537 76 0 0.0 4.0 0.00 0.18 0.18 86 1009.9
20260905203102 76 105 0.0 4.0 0.00 0.18 0.18 87 1009.9
20260905202538 76 214 1.0 4.0 0.00 0.18 0.18 86 1009.8
20260905202038 76 0 0.0 5.0 0.00 0.18 0.18 87 1009.8
20260905201601 76 0 1.0 5.0 0.00 0.18 0.18 87 1009.9
20260905201037 76 0 1.0 5.0 0.00 0.18 0.18 87 1010.0
20260905200542 76 255 1.0 5.0 0.00 0.18 0.18 87 1010.0
20260905200128 76 0 1.0 6.0 0.00 0.18 0.18 87 1010.0
20260905195535 77 173 1.0 6.0 0.00 0.18 0.18 86 1009.9
20260905195034 77 169 1.0 8.0 0.00 0.18 0.18 86 1010.1
20260905194556 77 274 0.0 8.0 0.00 0.18 0.18 86 1010.2
20260905194038 77 238 0.0 6.0 0.00 0.18 0.18 87 1010.1
20260905193538 77 0 1.0 5.0 0.00 0.18 0.18 88 1010.2
20260905193058 77 0 1.0 6.0 0.00 0.18 0.18 88 1010.3
20260905192538 77 217 1.0 6.0 0.00 0.18 0.18 88 1010.4
20260905192037 76 0 1.0 6.0 0.00 0.18 0.18 91 1010.3
20260905191600 76 231 1.0 5.0 0.00 0.18 0.18 90 1010.3
20260905191037 75 0 2.0 5.0 0.00 0.18 0.18 90 1010.4
20260905190538 76 151 2.0 5.0 0.00 0.18 0.18 92 1010.4
20260905190100 75 143 1.0 4.0 0.00 0.18 0.18 94 1010.4
20260905185543 74 0 0.0 4.0 0.00 0.18 0.18 94 1010.5
20260905185039 74 260 0.0 7.0 0.00 0.18 0.18 94 1010.6
20260905184609 74 0 0.0 7.0 0.00 0.18 0.18 94 1010.6
20260905184041 74 185 1.0 6.0 0.00 0.18 0.18 94 1010.8
20260905183538 74 195 2.0 9.0 0.00 0.18 0.18 94 1011.0
20260905183102 74 217 3.0 9.0 0.00 0.18 0.18 94 1011.1
20260905182537 74 186 2.0 8.0 0.00 0.18 0.18 95 1011.0
20260905182042 74 259 3.0 8.0 0.00 0.18 0.18 95 1010.8
20260905181600 74 225 1.0 5.0 0.00 0.18 0.18 96 1010.9
20260905181039 74 0 0.0 0.0 0.00 0.18 0.18 96 1010.7
20260905180534 73 0 0.0 0.0 0.01 0.18 0.18 96 1010.3
20260905180113 73 0 0.0 0.0 0.01 0.18 0.18 95 1010.2
20260905175537 73 0 0.0 0.0 0.03 0.18 0.18 95 1010.2
20260905175037 73 0 0.0 2.0 0.04 0.18 0.18 95 1010.2
20260905174602 73 0 0.0 4.0 0.05 0.18 0.18 95 1010.2
20260905174038 73 0 1.0 4.0 0.07 0.18 0.18 94 1009.9
20260905173538 73 128 0.0 4.0 0.10 0.18 0.18 95 1010.0
20260905173124 73 0 1.0 4.0 0.16 0.18 0.18 94 1010.1
20260905172536 73 54 0.0 0.0 0.17 0.18 0.18 95 1010.5
20260905172036 73 0 0.0 0.0 0.18 0.18 0.18 95 1010.7
20260905171559 72 0 0.0 0.0 0.18 0.18 0.18 94 1010.8
20260905171036 72 0 0.0 4.0 0.18 0.18 0.18 94 1010.8
20260905170538 72 0 0.0 5.0 0.17 0.17 0.17 94 1010.9
20260905170106 72 63 2.0 5.0 0.17 0.17 0.17 93 1011.0
20260905165536 73 71 3.0 5.0 0.15 0.15 0.15 92 1011.2
20260905165038 73 77 2.0 5.0 0.14 0.14 0.14 91 1011.4
20260905164611 74 65 1.0 3.0 0.13 0.13 0.13 89 1011.7
20260905164038 74 138 0.0 7.0 0.11 0.11 0.11 88 1011.9
20260905163536 75 0 1.0 7.0 0.08 0.08 0.08 86 1012.6
20260905163101 77 240 2.0 7.0 0.02 0.02 0.02 83 1013.0
20260905162538 78 254 1.0 3.0 0.01 0.01 0.01 84 1013.0
20260905162038 78 274 0.0 0.0 0.00 0.00 0.00 83 1012.4
20260905161559 78 0 0.0 0.0 0.00 0.00 0.00 81 1012.2
20260905161037 78 0 0.0 2.0 0.00 0.00 0.00 80 1012.1
20260905160539 79 0 0.0 3.0 0.00 0.00 0.00 79 1012.0
20260905160059 79 0 0.0 3.0 0.00 0.00 0.00 79 1012.0
20260905155538 79 352 1.0 3.0 0.00 0.00 0.00 79 1012.0
20260905155037 79 0 0.0 2.0 0.00 0.00 0.00 79 1012.0
20260905154606 79 0 0.0 2.0 0.00 0.00 0.00 78 1011.9
20260905154038 79 352 0.0 4.0 0.00 0.00 0.00 78 1011.8
20260905153537 79 0 0.0 4.0 0.00 0.00 0.00 78 1011.7
20260905153100 79 346 2.0 4.0 0.00 0.00 0.00 77 1011.6
20260905152538 79 16 1.0 4.0 0.00 0.00 0.00 77 1011.6
20260905152036 80 352 1.0 4.0 0.00 0.00 0.00 77 1011.6
20260905151605 80 360 0.0 4.0 0.00 0.00 0.00 76 1011.6
20260905151038 80 0 0.0 3.0 0.00 0.00 0.00 77 1011.7
20260905150538 80 329 0.0 2.0 0.00 0.00 0.00 77 1011.8
20260905150100 80 352 0.0 2.0 0.00 0.00 0.00 78 1011.9
20260905145540 80 0 0.0 2.0 0.00 0.00 0.00 78 1011.8
20260905145038 80 320 0.0 2.0 0.00 0.00 0.00 78 1011.7
20260905144558 80 323 0.0 2.0 0.00 0.00 0.00 78 1011.9
20260905144034 80 0 0.0 1.0 0.00 0.00 0.00 80 1011.9
20260905143541 80 0 0.0 1.0 0.00 0.00 0.00 80 1011.9